Kezdőlap
METAR-TAF:

METAR-TAF

Repülőterek :

Atlantic, Iowa, Amerikai Egyesült Államok

földrajzi szélesség: 41-24N, földrajzi hosszúság: 095-03W, magasság: 360 m

Jelenlegi meteorológiai megfigyelések

A jelentés 37 perccel ezelõtt készült, 12:55 UTC
Északkeleti szél 5 kt
Hőmérséklet -1°C
Páratartalom 100%
Légköri nyomás 1026 hPa
Látótávolság: 16.1 km
Szakadozott felhőzet 9000 lábon

METAR: KAIO 041255Z AUTO 05005KT 10SM BKN090 M01/M01 A3031 RMK AO2

Idő: 07:32 (13:32 UTC)


TAF: hiányzik

Meteorológiai megfigyelések és előrejelzések több, mint 4000 repülőtéren (METAR és TAF jelentéseket).

A térképen piros és sárga pontok jelzik az elérhető meteorológiai állomásokat.

Mozgassa az egeret a pont fölött, hogy megjelenjen az állomás neve.

Azután kattintson az időjárási megfigyelések és előrejelzések megtekintéséhez.

A térkép megváltoztatása: kattintson a fekete keresztel jelölt zöld gombra ráközelítéshez, a vonallal jelölt zöld gombra távolításhoz, vagy a zöld nyilakra a szomszédos térképek eléréséhez.


METAR-TAF: